This is the latest recevied weather packets stored in our database for station/object PE1BMM-13. If no packets are shown the sender has not sent any weather packets the latest 1 day(s).
| Time | Temp. | Humidity | Pressure | Rain* | Wind** | Luminosity | Snow |
|---|---|---|---|---|---|---|---|
| 1836274515 | 16.67° C | 90% | 1013.4 hPa | 0 mm | 1.34 m/s, 265° | - | - |
| 1836274378 | 16.67° C | 90% | 1013.2 hPa | 0 mm | 0.89 m/s, 256° | - | - |
| 1836274280 | 16.67° C | 90% | 1013.5 hPa | 0 mm | 1.34 m/s, 253° | - | - |
| 1836274136 | 16.67° C | 90% | 1013.3 hPa | 0 mm | 0.89 m/s, 259° | - | - |
| 1836273903 | 16.67° C | 90% | 1013.4 hPa | 0 mm | 0.89 m/s, 258° | - | - |
| 1778048640 | 11.11° C | 85% | 1009.6 hPa | 0 mm | 0.89 m/s, 108° | - | - |
| 1778048341 | 11.11° C | 85% | 1009.6 hPa | 0 mm | 0.89 m/s, 85° | - | - |
| 1778048041 | 11.11° C | 85% | 1009.5 hPa | 0 mm | 1.34 m/s, 93° | - | - |
| 1778047741 | 11.11° C | 85% | 1009.4 hPa | 0 mm | 1.34 m/s, 77° | - | - |
| 1778047442 | 11.11° C | 85% | 1009.4 hPa | 0 mm | 1.34 m/s, 127° | - | - |
| 1778047141 | 11.11° C | 86% | 1009.4 hPa | 0 mm | 0.89 m/s, 329° | - | - |
| 1778046840 | 10.56° C | 86% | 1009.4 hPa | 0 mm | 0.89 m/s, 127° | - | - |
| 1778046542 | 10.56° C | 86% | 1009.5 hPa | 0 mm | 0.89 m/s, 31° | - | - |
| 1778046238 | 10.56° C | 86% | 1009.4 hPa | 0 mm | 0.89 m/s, 85° | - | - |
| 1778045940 | 10.56° C | 86% | 1009.4 hPa | 0 mm | 0.89 m/s, 191° | - | - |
| 1778045639 | 10.56° C | 86% | 1009.2 hPa | 0 mm | 0.89 m/s, 101° | - | - |
| 1778045338 | 10.56° C | 86% | 1009.3 hPa | 0 mm | 0.89 m/s, 134° | - | - |
| 1778045142 | 10.56° C | 86% | 1009.3 hPa | 0 mm | 0.89 m/s, 107° | - | - |
| 1778044865 | 10.56° C | 85% | 1009.3 hPa | 0 mm | 0.89 m/s, 97° | - | - |
| 1778044436 | 10.56° C | 85% | 1009.3 hPa | 0 mm | 0.89 m/s, 2° | - | - |
| 1778044140 | 10.56° C | 85% | 1009.3 hPa | 0 mm | 0.45 m/s, 75° | - | - |
| 1778043834 | 10.56° C | 85% | 1009.4 hPa | 0 mm | 0.45 m/s, 343° | - | - |
| 1778043537 | 10.56° C | 85% | 1009.5 hPa | 0 mm | 0.89 m/s, 22° | - | - |
| 1778043238 | 10.56° C | 85% | 1009.5 hPa | 0 mm | 0.89 m/s, 33° | - | - |
| 1778042936 | 10.56° C | 85% | 1009.5 hPa | 0 mm | 0.89 m/s, 349° | - | - |
* Rain latest hour (hover to see other rain measurements)
** Current wind speed in m/s (hover to see current wind gust speed)